Probability
13 13 10 16 16 23 26 26 32 32 39 48 48 39 48 48 26 32 45 84 94 94 94 94 97 90 97 97 97 87 87 90 84 87 90 84 81 81 84 77 71 71 71
3 6 10 10 6 6 10 6 3 6 16 23 26 35 35 35 32 35 35 55 87 90 87 90 94 97 97 97 97 90 87 87 90 87 90 90 87 90 84 71 68 65 65
3 3 3 3 3 3 3 3 6 3 3 6 3 6 13 19 39 32 39 45 58 84 84 87 90 97 97 94 97 94 90 87 90 87 87 90 90 87 84 77 68 61 58
3 3 3 3 3 3 3 3 3 3 3 3 3 0 3 0 13 26 35 32 45 42 74 77 90 94 90 94 87 94 94 90 94 90 87 87 87 87 81 81 71 61 45
3 3 3 3 3 3 3 3 3 3 3 3 3 3 3 0 0 3 10 26 32 35 42 52 74 81 81 81 87 84 94 94 90 90 90 81 81 77 77 74 65 61 29
0 0 3 3 3 3 3 3 3 0 3 3 3 3 3 3 0 0 0 10 13 29 29 32 55 55 65 81 84 84 87 94 94 90 90 87 81 74 68 65 52 48 26
0 0 0 0 0 3 3 3 3 0 0 0 0 0 0 0 0 0 0 3 10 13 19 26 29 42 55 58 65 84 87 81 90 87 87 87 90 84 61 58 45 35 23
0 0 0 0 0 0 0 0 3 0 0 0 0 0 0 0 0 0 0 0 0 3 10 6 10 19 29 45 32 39 74 77 81 90 84 84 87 84 61 58 42 29 13
0 0 0 0 0 0 0 0 0 0 0 0 0 0 0 0 0 0 0 0 0 0 3 10 6 13 19 19 35 32 42 52 77 77 87 81 77 81 74 58 55 29 13
0 0 0 0 0 0 0 0 0 0 0 0 0 0 0 0 0 0 0 0 0 0 0 0 6 6 13 19 16 16 23 26 42 65 71 87 77 68 71 71 58 52 23
0 0 0 0 0 0 0 0 0 0 0 0 0 0 0 0 0 0 0 0 0 0 0 0 3 3 3 3 10 10 6 10 13 26 61 65 84 77 74 71 71 68 55
0 0 0 0 0 0 0 0 0 0 0 0 0 0 0 0 0 0 0 0 0 0 0 0 0 0 3 3 3 3 0 3 3 6 16 39 55 71 71 74 74 74 65
0 0 0 0 0 0 0 0 0 0 0 0 0 0 0 0 0 0 0 0 0 0 0 0 0 0 0 3 3 0 0 0 0 0 6 10 16 26 35 58 61 74 74
0 0 0 0 0 0 0 0 0 0 0 0 0 0 0 0 0 0 0 0 0 0 0 0 0 0 0 0 0 0 0 0 0 0 0 0 6 10 6 10 29 42 42
0 0 0 0 0 0 0 0 0 0 0 0 0 0 0 0 0 0 0 0 0 0 0 0 0 0 0 0 0 0 0 0 0 0 0 0 0 0 0 0 0 3 3
0 0 0 0 0 0 0 0 0 0 0 0 0 0 0 0 0 0 0 0 0 0 0 0 0 0 0 0 0 0 0 0 0 0 0 0 0 0 0 0 0 0 0
0 0 0 0 0 0 0 0 0 0 0 0 0 0 0 0 0 0 0 0 0 0 0 0 0 0 0 0 0 0 0 0 0 0 0 0 0 0 0 0 0 0 0
0 0 0 0 0 0 0 0 0 0 0 0 0 0 0 0 0 0 0 0 0 0 0 0 0 0 0 0 0 0 0 0 0 0 0 0 0 0 0 0 0 0 0
0 0 0 0 0 0 0 0 0 0 0 0 0 0 0 0 0 0 0 0 0 0 0 0 0 0 0 0 0 0 0 0 0 0 0 0 0 0 0 0 0 0 0
0 0 0 0 0 0 0 0 0 0 0 0 0 0 0 0 0 0 0 0 0 0 0 0 0 0 0 0 0 0 0 0 0 0 0 0 0 0 0 0 0 0 0
0 0 0 0 0 0 0 0 0 0 0 0 0 0 0 0 0 0 0 0 0 0 0 0 0 0 0 0 0 0 0 0 0 0 0 0 0 0 0 0 0 0 0
0 0 0 0 0 0 0 0 0 0 0 0 0 0 0 0 0 0 0 0 0 0 0 0 0 0 0 0 0 0 0 0 0 0 0 0 0 0 0 0 0 0 0
0 0 0 0 0 0 0 0 0 0 0 0 0 0 0 0 0 0 0 0 0 0 0 0 0 0 0 0 0 0 0 0 0 0 0 0 0 0 0 0 0 0 0
0 0 0 0 0 0 0 0 0 0 0 0 0 0 0 0 0 0 0 0 0 0 0 0 0 0 0 0 0 0 0 0 0 0 0 0 0 0 0 0 0 0 0
0 0 0 0 0 0 0 0 0 0 0 0 0 0 0 0 0 0 0 0 0 0 0 0 0 0 0 0 0 0 0 0 0 0 0 0 0 0 0 0 0 0 0
0 0 0 0 0 0 0 0 0 0 0 0 0 0 0 0 0 0 0 0 0 0 0 0 0 0 0 0 0 0 0 0 0 0 0 0 0 0 0 0 0 0 0
Height
5862 5862 5863 5863 5864 5865 5865 5866 5866 5868 5870 5872 5874 5876 5878 5880 5881 5883 5885 5887 5888 5890 5892 5894 5896 5898 5900 5902 5904 5907 5909 5911 5912 5914 5916 5918 5919 5921 5923 5925 5926 5927 5929
5858 5859 5859 5860 5860 5861 5861 5862 5862 5864 5865 5867 5869 5871 5873 5875 5877 5879 5881 5883 5885 5887 5889 5890 5892 5894 5896 5899 5901 5904 5906 5909 5911 5912 5914 5916 5918 5920 5922 5924 5925 5927 5928
5855 5855 5855 5856 5856 5856 5857 5858 5858 5859 5861 5862 5864 5866 5868 5870 5872 5874 5876 5878 5880 5883 5885 5886 5888 5890 5893 5895 5898 5900 5903 5906 5908 5910 5912 5914 5916 5919 5920 5922 5924 5926 5928
5851 5851 5851 5852 5852 5852 5853 5854 5854 5855 5856 5858 5859 5861 5863 5865 5867 5869 5871 5874 5876 5878 5880 5882 5884 5886 5888 5891 5894 5896 5899 5902 5905 5907 5910 5912 5914 5916 5919 5921 5923 5925 5926
5847 5847 5847 5847 5848 5848 5849 5849 5850 5851 5852 5853 5854 5856 5857 5859 5861 5863 5866 5868 5871 5873 5875 5877 5880 5882 5884 5886 5889 5892 5895 5898 5901 5904 5906 5909 5911 5914 5916 5918 5920 5923 5925
5843 5843 5843 5843 5843 5844 5844 5845 5845 5846 5847 5848 5849 5850 5852 5854 5856 5858 5860 5862 5865 5867 5870 5872 5875 5877 5879 5882 5885 5887 5890 5893 5896 5900 5902 5905 5908 5910 5913 5915 5918 5920 5922
5840 5839 5839 5839 5839 5839 5840 5840 5840 5841 5842 5843 5844 5845 5847 5848 5850 5852 5854 5856 5859 5861 5864 5866 5869 5872 5874 5877 5879 5882 5885 5888 5891 5894 5898 5901 5904 5906 5909 5912 5914 5917 5919
5836 5835 5835 5835 5835 5835 5835 5835 5835 5836 5837 5837 5838 5839 5841 5843 5844 5846 5848 5850 5852 5854 5857 5859 5862 5865 5868 5871 5874 5876 5879 5882 5885 5889 5892 5895 5899 5902 5905 5908 5910 5913 5916
5832 5831 5831 5831 5830 5830 5830 5830 5830 5831 5831 5832 5833 5834 5835 5836 5838 5839 5841 5843 5845 5847 5850 5852 5855 5858 5861 5864 5867 5870 5873 5876 5879 5882 5886 5889 5892 5896 5899 5903 5906 5909 5911
5828 5828 5827 5826 5826 5826 5826 5825 5825 5825 5826 5826 5827 5828 5829 5829 5831 5832 5834 5836 5837 5840 5842 5845 5848 5850 5853 5856 5859 5862 5865 5869 5872 5875 5879 5882 5886 5889 5893 5897 5900 5903 5906
5825 5824 5823 5822 5822 5821 5821 5820 5820 5820 5820 5821 5821 5821 5822 5823 5824 5825 5827 5829 5830 5832 5834 5837 5839 5842 5845 5848 5851 5854 5857 5861 5864 5867 5871 5875 5878 5882 5886 5890 5894 5897 5901
5822 5821 5820 5818 5817 5817 5816 5815 5815 5815 5815 5815 5815 5815 5816 5816 5817 5818 5819 5821 5823 5825 5826 5828 5831 5833 5836 5839 5842 5846 5849 5852 5856 5859 5863 5867 5871 5874 5878 5882 5886 5890 5894
5819 5818 5816 5815 5813 5812 5811 5810 5810 5809 5809 5809 5809 5809 5809 5809 5810 5811 5812 5813 5814 5816 5818 5820 5822 5824 5827 5830 5833 5836 5840 5843 5847 5851 5854 5858 5862 5866 5870 5874 5878 5883 5887
5816 5815 5813 5811 5810 5808 5807 5806 5805 5804 5803 5802 5802 5802 5802 5802 5803 5803 5804 5805 5806 5807 5809 5811 5813 5815 5817 5820 5823 5826 5830 5833 5837 5841 5845 5849 5854 5858 5862 5866 5870 5875 5879
5814 5812 5810 5808 5806 5804 5802 5801 5799 5798 5797 5796 5796 5795 5795 5794 5794 5795 5795 5796 5798 5799 5800 5801 5803 5805 5807 5810 5813 5816 5820 5823 5826 5830 5835 5839 5844 5848 5853 5857 5861 5866 5870
5811 5809 5807 5804 5802 5800 5798 5796 5794 5793 5791 5790 5789 5788 5787 5787 5786 5786 5786 5787 5788 5789 5791 5791 5792 5794 5797 5799 5802 5805 5809 5812 5816 5820 5824 5828 5833 5838 5843 5847 5851 5856 5861
5809 5807 5804 5801 5798 5796 5794 5791 5789 5787 5785 5784 5782 5781 5780 5779 5778 5778 5777 5777 5778 5779 5780 5781 5782 5783 5786 5788 5791 5794 5798 5801 5805 5809 5813 5817 5822 5827 5831 5836 5841 5846 5851
5807 5804 5801 5798 5795 5792 5789 5787 5785 5782 5780 5777 5775 5774 5772 5771 5770 5769 5768 5768 5768 5768 5770 5771 5771 5773 5774 5777 5779 5783 5786 5789 5793 5797 5801 5805 5810 5815 5820 5825 5830 5835 5840
5804 5801 5798 5795 5792 5788 5785 5782 5780 5777 5774 5771 5769 5766 5764 5762 5761 5759 5758 5758 5757 5757 5758 5759 5760 5761 5763 5765 5767 5770 5773 5777 5780 5784 5788 5793 5798 5803 5808 5813 5818 5823 5829
5802 5798 5795 5792 5788 5785 5781 5778 5775 5771 5768 5765 5762 5759 5756 5754 5752 5750 5749 5747 5747 5746 5747 5748 5748 5749 5751 5752 5754 5757 5760 5763 5767 5771 5775 5780 5785 5790 5795 5801 5806 5811 5817
5799 5795 5792 5788 5784 5780 5777 5773 5770 5766 5762 5759 5755 5752 5749 5746 5743 5741 5739 5737 5736 5736 5736 5736 5736 5737 5738 5739 5741 5743 5747 5750 5754 5758 5762 5767 5772 5777 5782 5787 5793 5799 5804
5795 5792 5788 5784 5780 5776 5772 5768 5764 5760 5756 5752 5748 5744 5741 5738 5735 5732 5730 5728 5726 5725 5725 5724 5724 5725 5725 5726 5727 5729 5733 5737 5741 5745 5749 5754 5758 5764 5769 5774 5780 5786 5792
5791 5788 5784 5780 5776 5772 5767 5763 5759 5755 5751 5746 5742 5738 5734 5730 5727 5724 5721 5719 5717 5715 5714 5713 5713 5712 5712 5713 5715 5717 5719 5722 5727 5731 5735 5741 5745 5751 5756 5761 5767 5773 5779
5787 5783 5779 5775 5771 5767 5763 5758 5754 5749 5745 5740 5736 5731 5727 5722 5719 5715 5712 5710 5707 5705 5704 5703 5702 5701 5700 5700 5702 5704 5706 5710 5714 5717 5722 5728 5732 5737 5742 5748 5754 5760 5766
5783 5779 5775 5771 5767 5762 5758 5753 5748 5743 5739 5734 5729 5724 5720 5715 5711 5707 5704 5701 5698 5695 5693 5692 5691 5689 5689 5689 5689 5691 5694 5697 5702 5705 5708 5714 5719 5724 5730 5736 5741 5747 5753
5778 5774 5770 5766 5762 5757 5752 5748 5743 5738 5733 5728 5723 5718 5713 5708 5704 5700 5696 5693 5689 5686 5684 5682 5680 5679 5678 5678 5678 5680 5682 5685 5689 5693 5696 5701 5706 5711 5717 5723 5729 5735 5741
Wind_Speed
16 17 17 17 17 17 17 18 18 18 18 18 18 19 19 18 18 18 17 17 18 17 17 16 17 18 17 17 17 17 16 16 15 14 13 13 12 11 10 10 9 8 7
16 16 16 17 17 18 19 19 19 19 19 19 20 20 20 20 20 21 19 19 20 20 19 18 18 18 19 20 20 19 19 18 17 16 16 15 14 13 12 11 10 9 8
16 16 17 18 18 19 20 20 20 20 20 21 21 22 22 22 22 23 22 21 21 21 21 21 21 20 21 22 22 22 21 21 20 19 18 17 16 15 14 13 12 11 10
15 16 17 17 18 18 19 20 20 20 21 21 22 23 23 24 24 25 25 24 23 23 24 23 23 22 22 22 23 24 24 23 22 21 20 19 18 18 16 15 14 13 12
15 16 17 17 18 18 19 20 20 20 20 21 22 22 23 24 25 26 26 26 25 25 25 25 25 24 24 24 25 26 26 25 25 24 23 22 21 20 19 18 17 15 14
15 16 16 17 18 18 18 19 19 20 20 21 21 22 22 24 25 26 27 26 27 27 27 27 26 26 26 26 26 27 27 27 27 27 26 25 23 22 22 21 19 18 17
15 16 16 17 17 18 19 19 20 20 21 22 22 23 23 24 25 25 27 28 29 29 29 30 30 29 29 29 29 29 29 29 29 29 28 27 26 25 24 23 22 21 20
15 15 16 16 17 18 19 20 21 21 21 22 22 23 24 24 26 27 27 28 30 31 31 32 32 32 32 31 31 31 32 32 31 31 30 30 29 28 27 26 25 23 22
14 14 15 16 17 18 19 20 21 21 22 22 23 24 25 25 27 28 28 29 31 32 32 33 33 33 34 34 34 34 34 35 34 33 32 32 32 31 30 29 28 26 25
13 13 14 15 16 17 18 19 20 21 22 22 23 24 25 26 26 28 29 29 30 31 33 34 35 35 34 35 36 36 36 36 37 36 35 34 34 34 33 33 31 30 28
12 13 14 14 15 16 17 18 19 21 22 22 23 24 25 25 26 27 29 30 30 31 32 33 35 36 36 36 36 37 37 38 39 39 38 37 36 36 35 35 34 33 31
12 13 14 15 15 16 17 18 19 20 21 22 23 24 25 26 27 27 28 29 31 32 33 33 35 37 37 37 37 38 39 39 40 40 40 40 39 38 38 37 36 35 35
13 13 14 15 16 16 17 18 19 19 21 22 23 24 25 26 27 28 28 29 31 32 33 34 35 36 37 38 38 39 40 40 41 41 41 42 41 41 41 40 39 38 37
13 14 14 15 16 16 17 17 18 20 21 22 23 24 25 26 28 29 30 30 31 33 34 34 36 37 38 39 40 40 40 41 42 43 43 43 43 43 42 42 42 41 40
14 14 15 16 16 17 17 18 19 19 21 22 23 24 26 27 28 29 30 31 32 33 34 35 36 37 39 40 41 41 42 42 43 45 46 46 45 45 44 44 43 42 42
15 15 16 17 17 17 18 18 19 20 21 22 23 24 25 26 27 29 30 31 33 34 34 36 37 38 39 40 41 42 43 44 45 46 47 48 47 47 46 45 45 44 43
16 16 17 18 18 18 18 19 19 20 21 22 24 25 26 27 27 28 30 31 32 33 34 36 38 39 40 40 41 42 43 44 46 47 48 49 49 48 48 49 48 47 46
17 17 18 19 19 19 19 19 20 21 22 23 24 25 26 27 28 29 30 31 33 34 35 36 38 39 41 41 42 43 44 45 46 48 48 50 51 50 49 50 50 49 48
18 19 20 20 20 20 20 20 21 22 23 24 24 25 26 27 28 29 30 32 33 34 35 36 38 39 41 43 44 44 46 46 46 47 49 50 51 52 51 50 51 51 50
19 20 21 21 22 22 21 22 22 23 24 24 25 26 26 27 28 29 30 30 32 33 34 36 37 39 41 43 45 45 46 48 48 48 49 50 51 52 52 52 51 51 52
20 21 22 23 23 23 23 23 24 25 25 25 26 26 27 27 28 28 29 30 30 32 33 35 36 38 41 43 45 46 47 48 49 49 50 50 50 51 52 52 52 52 52
21 22 23 23 24 24 24 25 25 25 26 26 27 27 27 28 28 28 28 29 30 30 32 33 35 37 39 41 44 45 47 48 49 50 51 51 51 51 52 52 52 52 52
22 23 23 24 25 25 26 26 27 27 27 27 27 28 28 28 29 28 28 29 30 31 32 33 33 35 38 40 42 44 45 46 47 49 50 51 52 52 52 52 53 53 52
23 24 24 25 25 26 27 28 27 27 27 28 28 28 28 28 28 28 28 28 29 30 31 32 33 34 36 38 40 42 43 44 46 47 49 50 51 51 52 52 52 52 51
24 24 25 26 27 28 29 29 28 27 28 29 28 28 28 28 28 27 27 28 28 29 30 31 32 33 33 35 37 40 41 43 44 45 47 48 49 50 51 51 52 51 51
25 25 26 27 27 28 29 29 29 29 29 29 29 28 28 27 27 27 27 27 28 28 29 30 31 32 32 33 35 36 38 40 41 43 45 47 48 49 49 50 51 51 51
Wind_Direction
269 270 270 270 268 264 263 264 261 256 254 253 250 245 240 242 245 241 241 241 236 235 232 228 222 219 217 215 214 214 212 210 206 203 200 196 192 190 187 184 180 177 172
269 267 266 267 266 265 265 265 263 259 256 253 251 249 242 242 242 240 240 241 239 237 235 231 226 223 222 220 217 216 216 215 212 210 208 205 202 200 197 195 192 190 187
269 266 265 266 267 266 265 264 264 261 256 255 253 251 246 243 243 242 241 242 242 239 237 233 230 229 227 223 220 219 218 218 216 215 214 212 209 207 205 203 202 200 198
272 270 267 266 267 267 266 265 265 262 259 257 255 252 250 247 245 243 242 242 241 240 239 236 233 231 229 225 222 220 219 220 220 219 217 216 214 212 211 210 209 208 207
273 271 269 268 267 266 266 267 264 262 260 257 255 253 252 248 246 245 243 243 242 241 239 238 236 235 232 226 224 223 221 221 222 222 221 219 218 218 217 215 214 213 212
276 274 273 272 269 267 267 266 265 264 262 259 256 255 253 250 248 247 244 244 243 242 241 239 238 237 235 232 228 225 224 223 224 224 224 223 222 221 220 219 218 218 217
281 278 277 275 272 270 269 268 268 266 264 261 259 256 255 253 249 248 246 246 244 243 243 242 240 239 237 235 234 230 228 226 226 225 225 225 225 225 224 222 221 221 222
287 283 279 276 273 271 271 271 269 268 266 264 262 258 256 253 251 249 248 247 245 244 244 243 241 239 237 236 235 234 232 230 228 227 227 227 226 227 226 225 224 224 224
294 292 286 281 277 273 272 271 270 268 266 265 263 261 257 256 253 251 250 250 248 246 245 242 240 239 238 237 236 236 235 233 231 229 228 228 228 227 227 226 226 226 225
298 296 293 288 284 280 276 274 272 270 267 265 263 262 260 259 256 253 251 250 250 249 245 243 242 241 240 238 237 237 236 235 234 232 230 229 230 230 229 228 228 228 228
304 302 300 296 291 286 282 279 276 272 269 267 265 263 262 261 259 256 253 251 251 250 247 245 243 243 241 239 238 238 237 236 236 234 232 231 231 231 230 230 230 230 230
313 308 305 302 298 293 288 285 282 278 274 271 268 266 263 261 260 258 256 254 252 251 249 248 245 243 241 239 238 238 238 238 237 235 235 234 233 232 232 231 230 231 231
324 320 314 308 304 300 295 291 288 284 281 277 274 270 267 264 262 260 258 256 255 253 252 250 249 245 242 240 239 238 239 239 238 236 236 235 234 233 233 232 232 232 232
331 327 323 317 312 307 303 298 293 288 285 281 277 274 271 268 266 263 261 258 256 255 254 252 250 249 246 244 241 240 239 239 238 236 236 236 235 235 235 234 234 234 234
337 333 330 325 320 315 309 303 298 293 289 285 281 277 274 271 268 265 263 261 258 256 255 254 252 251 249 248 245 243 240 239 238 236 235 235 236 235 236 235 234 234 235
341 338 334 330 325 320 315 309 305 299 294 291 287 283 279 275 272 269 265 263 260 258 257 255 253 252 250 249 247 245 243 240 239 238 236 235 236 235 236 236 235 234 235
343 340 338 335 331 326 321 315 311 307 302 297 293 288 283 280 276 273 270 267 263 261 258 257 255 253 252 250 248 246 243 242 241 240 238 237 236 236 236 236 236 235 235
344 342 340 337 332 328 325 320 315 312 308 304 299 293 288 284 280 277 273 270 267 264 262 258 257 255 253 251 249 247 244 242 241 240 239 238 238 238 238 237 236 236 236
340 338 337 335 332 328 326 322 319 316 312 308 304 299 294 289 284 280 277 273 270 268 265 261 258 256 255 253 251 249 247 245 242 240 239 239 238 238 238 238 236 236 237
337 336 335 334 332 329 326 324 322 319 315 311 307 303 299 294 289 285 281 277 273 270 267 265 261 258 256 255 253 250 249 247 244 242 240 239 238 238 238 238 237 237 236
335 335 335 334 332 330 327 325 323 320 317 314 310 307 303 299 294 290 285 281 278 274 271 268 264 261 258 256 253 251 249 247 244 243 241 240 239 238 238 237 236 235 236
334 334 334 333 333 330 327 325 323 321 320 317 314 311 307 302 298 294 289 284 280 277 274 271 269 265 262 258 255 252 250 248 245 243 241 241 240 238 237 236 235 235 235
333 333 332 332 332 331 329 326 323 322 321 320 317 313 310 306 301 296 292 288 284 280 277 275 273 269 264 260 256 254 251 248 245 243 241 240 241 240 237 235 235 234 234
330 331 331 331 330 330 330 327 324 322 322 321 319 316 313 309 306 301 296 292 288 284 281 278 275 271 266 261 257 254 251 248 245 243 240 239 240 240 237 236 235 234 234
327 328 329 329 328 328 329 329 327 324 323 322 321 318 315 312 309 306 301 296 292 288 284 281 277 273 269 264 259 255 252 249 246 244 242 239 238 238 237 236 234 234 234
324 325 326 327 327 327 328 328 328 326 324 323 322 320 318 315 313 311 306 301 296 292 288 284 280 275 270 265 261 256 252 249 246 244 242 240 237 236 235 235 235 234 234